Weather History for Augusta, ME

Change the Weather History Date:

Friday, March 1, 2013

  Actual Average Record
Temperature  
Mean Temperature 32 °F -  
Max Temperature 33 °F 32 °F 48 °F (1999)
Min Temperature 30 °F 19 °F 0 °F (2014)
Degree Days  
Heating Degree Days 34    
Moisture  
Dew Point 28 °F    
Average Humidity 89    
Maximum Humidity 93    
Minimum Humidity 85    
Precipitation  
Precipitation 0.01 in - - ()
Sea Level Pressure  
Sea Level Pressure 29.61 in    
Wind  
Wind Speed 11 mph (North)    
Max Wind Speed 15 mph    
Max Gust Speed 20 mph    
Visibility 4 miles    
Events Snow    
Averages and records for this station are not official NWS values.
T = Trace of Precipitation, MM = Missing Value Source: NWS Daily Summary

Daily Weather History Graph

Daily Weather History Graph

Search for Another Location

Airport:

Trip Planner

Search our weather history database for the weather conditions in past years. The results will help you decide how hot, cold, wet, or windy it might be!

Date:

Astronomy

Mar. 01, 2013 Rise Set
Actual Time 6:16 AM EST 5:27 PM EST
Civil Twilight 5:46 AM EST 5:56 PM EST
Nautical Twilight 5:13 AM EST 6:30 PM EST
Astronomical Twilight 4:39 AM EST 7:04 PM EST
Moon 10:09 PM EST (3/1) 7:49 AM EST (3/1)
Length of Visible Light 12h 09m
Length of Day
11h 11m
Waning Gibbous, 83% of the Moon is Illuminated
Mar 1
Waning Gibbous
Mar 4
Last Quarter
Mar 11
New
Mar 19
First Quarter
Mar 27
Full

Hourly Weather History & Observations

Time (EST) Temp. Windchill Dew Point Humidity Pressure Visibility Wind Dir Wind Speed Gust Speed Precip Events Conditions
12:28 AM 30.2 °F 21.3 °F 28.4 °F 93% 29.54 in 10.0 mi North 10.4 mph - N/A   Overcast
12:41 AM 30.2 °F 21.3 °F 26.6 °F 86% 29.54 in 10.0 mi North 10.4 mph - N/A   Overcast
12:53 AM 30.0 °F 20.0 °F 27.0 °F 88% 29.55 in 10.0 mi North 12.7 mph - N/A   Overcast
1:14 AM 30.2 °F 20.8 °F 26.6 °F 86% 29.54 in 10.0 mi North 11.5 mph - N/A   Overcast
1:23 AM 30.2 °F 21.3 °F 26.6 °F 86% 29.54 in 10.0 mi North 10.4 mph - N/A   Overcast
1:53 AM 30.0 °F 20.5 °F 28.0 °F 92% 29.55 in 10.0 mi NNW 11.5 mph - N/A   Overcast
2:53 AM 30.2 °F 20.8 °F 28.4 °F 93% 29.53 in 7.0 mi NNW 11.5 mph - N/A   Overcast
3:53 AM 30.0 °F 21.7 °F 28.0 °F 92% 29.55 in 9.0 mi NNW 9.2 mph - N/A   Overcast
4:53 AM 30.0 °F 21.1 °F 28.0 °F 92% 29.56 in 10.0 mi North 10.4 mph - N/A   Overcast
5:20 AM 30.2 °F 21.3 °F 28.4 °F 93% 29.55 in 6.0 mi North 10.4 mph - N/A   Overcast
5:34 AM 30.2 °F 21.9 °F 28.4 °F 93% 29.55 in 2.0 mi North 9.2 mph - 0.00 in Snow Light Snow
5:53 AM 30.0 °F 20.5 °F 28.0 °F 92% 29.57 in 5.0 mi North 11.5 mph - 0.00 in Snow Light Snow
6:53 AM 30.0 °F 20.5 °F 28.0 °F 92% 29.60 in 5.0 mi North 11.5 mph - 0.00 in   Overcast
6:56 AM 30.2 °F 19.8 °F 28.4 °F 93% 29.58 in 5.0 mi North 13.8 mph - N/A   Overcast
7:04 AM 30.2 °F 19.8 °F 28.4 °F 93% 29.58 in 8.0 mi North 13.8 mph - N/A   Overcast
7:53 AM 30.0 °F 20.5 °F 27.0 °F 88% 29.61 in 7.0 mi North 11.5 mph 19.6 mph N/A   Overcast
8:53 AM 30.0 °F 21.1 °F 28.0 °F 92% 29.61 in 6.0 mi North 10.4 mph - N/A   Overcast
9:53 AM 30.2 °F 21.3 °F 26.6 °F 86% 29.61 in 8.0 mi North 10.4 mph - N/A   Overcast
10:53 AM 30.9 °F 20.2 °F 27.0 °F 85% 29.63 in 9.0 mi NNE 15.0 mph - N/A   Overcast
11:49 AM 30.2 °F 21.3 °F 26.6 °F 86% 29.62 in 1.8 mi North 10.4 mph - 0.00 in Snow Light Snow
11:53 AM 30.9 °F 23.5 °F 27.0 °F 85% 29.63 in 1.2 mi North 8.1 mph - 0.00 in Snow Light Snow
12:36 PM 32.0 °F 22.5 °F 28.4 °F 87% 29.62 in 3.0 mi North 12.7 mph - 0.00 in Snow Light Snow
12:47 PM 32.0 °F 21.6 °F 28.4 °F 87% 29.62 in 5.0 mi North 15.0 mph 19.6 mph 0.00 in Snow Light Snow
12:53 PM 32.0 °F 23.6 °F 28.0 °F 85% 29.63 in 4.0 mi North 10.4 mph 19.6 mph 0.00 in Snow Light Snow
1:11 PM 32.0 °F 23.0 °F 28.4 °F 87% 29.62 in 2.5 mi North 11.5 mph 17.3 mph N/A Snow Light Snow
1:20 PM 32.0 °F 22.5 °F 28.4 °F 87% 29.61 in 3.0 mi North 12.7 mph - 0.00 in Snow Light Snow
1:28 PM 32.0 °F 23.0 °F 28.4 °F 87% 29.61 in 2.0 mi North 11.5 mph - 0.00 in Snow Light Snow
1:32 PM 32.0 °F 24.2 °F 28.4 °F 87% 29.61 in 1.5 mi North 9.2 mph - 0.00 in Snow Light Snow
1:53 PM 32.0 °F 23.0 °F 28.0 °F 85% 29.63 in 1.2 mi North 11.5 mph - 0.00 in Snow Light Snow
2:03 PM 32.0 °F 23.0 °F 28.4 °F 87% 29.61 in 1.8 mi North 11.5 mph - 0.00 in Snow Light Snow
2:08 PM 32.0 °F 23.0 °F 28.4 °F 87% 29.61 in 2.0 mi North 11.5 mph - 0.00 in Snow Light Snow
2:11 PM 32.0 °F 23.0 °F 28.4 °F 87% 29.61 in 2.5 mi North 11.5 mph - N/A Snow Light Snow
2:42 PM 32.0 °F 24.2 °F 28.4 °F 87% 29.61 in 1.8 mi North 9.2 mph - 0.00 in Snow Light Snow
2:44 PM 32.0 °F 24.2 °F 28.4 °F 87% 29.61 in 1.8 mi North 9.2 mph - 0.00 in Snow Light Snow
2:46 PM 32.0 °F 23.6 °F 28.4 °F 87% 29.61 in 2.0 mi North 10.4 mph - 0.00 in Snow Light Snow
2:53 PM 32.0 °F 24.2 °F 28.9 °F 88% 29.62 in 2.0 mi North 9.2 mph - 0.00 in Snow Light Snow
3:36 PM 32.0 °F 24.2 °F 30.2 °F 93% 29.61 in 2.5 mi NNW 9.2 mph - 0.00 in Snow Light Snow
3:53 PM 33.1 °F 24.9 °F 30.0 °F 89% 29.62 in 3.0 mi NNW 10.4 mph - 0.00 in Snow Light Snow
4:10 PM 33.8 °F 26.4 °F 30.2 °F 87% 29.61 in 2.5 mi NNW 9.2 mph - 0.00 in Snow Light Snow
4:21 PM 33.8 °F 25.8 °F 30.2 °F 87% 29.61 in 3.0 mi NNW 10.4 mph - 0.00 in Snow Light Snow
4:53 PM 33.1 °F 23.9 °F 28.9 °F 85% 29.64 in 7.0 mi NNW 12.7 mph - 0.00 in Snow Light Snow
5:17 PM 32.0 °F 22.5 °F 28.4 °F 87% 29.63 in 2.0 mi NNW 12.7 mph - 0.00 in Snow Light Snow
5:19 PM 32.0 °F 23.0 °F 28.4 °F 87% 29.63 in 1.8 mi NNW 11.5 mph - 0.00 in Snow Light Snow
5:37 PM 32.0 °F 21.6 °F 30.2 °F 93% 29.63 in 2.0 mi North 15.0 mph - 0.00 in Snow Light Snow
5:53 PM 32.0 °F 23.0 °F 28.9 °F 88% 29.65 in 3.0 mi NNW 11.5 mph - 0.00 in Snow Light Snow
6:06 PM 32.0 °F 22.5 °F 28.4 °F 87% 29.65 in 4.0 mi NNW 12.7 mph - 0.00 in Snow Light Snow
6:40 PM 30.2 °F 22.6 °F 28.4 °F 93% 29.65 in 3.0 mi North 8.1 mph - 0.00 in Snow Light Snow
6:50 PM 30.2 °F 21.9 °F 28.4 °F 93% 29.65 in 2.0 mi North 9.2 mph - 0.00 in Snow Light Snow
6:53 PM 30.9 °F 22.2 °F 28.9 °F 92% 29.67 in 2.0 mi North 10.4 mph - 0.00 in Snow Light Snow
7:07 PM 30.2 °F 21.3 °F 28.4 °F 93% 29.65 in 2.5 mi North 10.4 mph - 0.00 in Snow Light Snow
7:13 PM 30.2 °F 20.2 °F 28.4 °F 93% 29.65 in 3.0 mi NNW 12.7 mph - 0.00 in Snow Light Snow
7:53 PM 30.9 °F 21.7 °F 28.9 °F 92% 29.67 in 4.0 mi North 11.5 mph - 0.00 in Snow Light Snow
8:53 PM 30.2 °F 21.9 °F 28.4 °F 93% 29.65 in 4.0 mi NNW 9.2 mph - N/A Snow Light Snow
9:25 PM 30.2 °F 21.9 °F 28.4 °F 93% 29.64 in 3.0 mi NNW 9.2 mph - 0.00 in Snow Light Snow
9:40 PM 30.2 °F 22.6 °F 28.4 °F 93% 29.64 in 2.5 mi NNW 8.1 mph - 0.00 in Snow Light Snow
9:53 PM 30.9 °F 22.8 °F 28.9 °F 92% 29.65 in 3.0 mi NW 9.2 mph - 0.00 in Snow Light Snow
10:53 PM 30.9 °F 22.8 °F 28.9 °F 92% 29.64 in 3.0 mi NNW 9.2 mph - 0.00 in Snow Light Snow
11:53 PM 30.9 °F 23.5 °F 28.9 °F 92% 29.64 in 4.0 mi NNW 8.1 mph - 0.01 in Snow Light Snow